"Pseudo-MPEC" for SWC0569

Created 2024 May 21 18:22:06 UT using Find_Orb

Click here for an explanation of pseudo-MPECs

 
 Astrometry: 
     SWC0569*KB2024 05 110JyB?0AstrometryJGMkh@j%.tE7y/redacted;wCclickA26d4]Y05
     SWC0569 KB2024 05 116U_Z^ChereyHGGP8iJ\IYVnpU$nRyZh=H%S$dT8Q7Kx8forUk\%MY05
     SWC0569 KB2024 05 11+^*S/91WF1k4N9n\=Xj/[AG`s9odutl3vZBiexplanationEy5VjY05

Station data:
(Y05) SONEAR Wykrota-CEAMIG, Serra da Piedade  (S19.824251 W43.690000)
   Brazil.  Observer C. Jacques. 0.45-m f/2.9 reflector + CMO.

Orbital elements:  SWC0569
   Perihelion 2024 Aug 13.13346 +/- 54.1 TT =  3:12:10 (JD 2460535.63346)
Epoch 2024 May 11.0 TT = JDT 2460441.5   Earth MOID: 0.0234      AutoNEOCP
M 316.87110371 +/- 38               (J2000 ecliptic)
n   0.45816755 +/- 0.402            Peri.   88.68363 +/- 90
a   1.66642778 +/- 0.976            Node   268.22545 +/- 41
e   0.5992029 +/- 0.256             Incl.   28.71513 +/- 17
P   2.15/785.72d           H 19.34  G  0.15   U 12.1  SR
q 0.66789927 +/- 0.552    Q 2.66495629 +/- 54.6
From 3 observations 2024 May 11 (39.5 min); mean residual 0".55
Residuals in arcseconds: 
240511 Y05  .19+  .50-    240511 Y05  .39-  1.0+    240511 Y05  .19+  .53-    

Ephemerides (geocentric):
Date (UTC) HH   RA             Dec           delta  r     elong  mag " sig PA
---- --------  ------------   ------------  ------ ------ -----  --- --------
2024 05 21 18  18 39 05.680   -56 02 25.03  .41969 1.3345 133.1 19.5  46d 139
2024 05 21 19  18 39 07.174   -56 02 27.65  .41909 1.3341 133.1 19.5  46d 139
2024 05 21 20  18 39 08.663   -56 02 30.23  .41850 1.3337 133.1 19.5  46d 139
2024 05 21 21  18 39 10.146   -56 02 32.76  .41790 1.3333 133.1 19.5  46d 139
2024 05 21 22  18 39 11.622   -56 02 35.23  .41731 1.3329 133.2 19.5  46d 139
2024 05 21 23  18 39 13.093   -56 02 37.66  .41671 1.3325 133.2 19.5  46d 139
2024 05 22 00  18 39 14.559   -56 02 40.05  .41612 1.3321 133.2 19.5  46d 139
2024 05 22 01  18 39 16.018   -56 02 42.38  .41553 1.3317 133.2 19.5  46d 139
2024 05 22 02  18 39 17.471   -56 02 44.66  .41493 1.3313 133.3 19.5  46d 139
2024 05 22 03  18 39 18.919   -56 02 46.90  .41434 1.3310 133.3 19.5  46d 139
2024 05 22 04  18 39 20.361   -56 02 49.08  .41374 1.3306 133.3 19.5  46d 139
2024 05 22 05  18 39 21.796   -56 02 51.22  .41315 1.3302 133.3 19.4  46d 139
2024 05 22 06  18 39 23.226   -56 02 53.30  .41256 1.3298 133.3 19.4  47d 139
2024 05 22 07  18 39 24.650   -56 02 55.34  .41196 1.3294 133.4 19.4  47d 139
2024 05 22 08  18 39 26.068   -56 02 57.32  .41137 1.3290 133.4 19.4  47d 139
2024 05 22 09  18 39 27.480   -56 02 59.25  .41078 1.3286 133.4 19.4  47d 139
2024 05 22 10  18 39 28.886   -56 03 01.14  .41018 1.3282 133.4 19.4  47d 139
2024 05 22 11  18 39 30.286   -56 03 02.97  .40959 1.3278 133.5 19.4  47d 139
2024 05 22 12  18 39 31.680   -56 03 04.75  .40900 1.3274 133.5 19.4  47d 139
2024 05 22 13  18 39 33.068   -56 03 06.48  .40841 1.3270 133.5 19.4  48d 139
2024 05 22 14  18 39 34.450   -56 03 08.16  .40781 1.3266 133.5 19.4  48d 139
2024 05 22 15  18 39 35.826   -56 03 09.79  .40722 1.3262 133.6 19.4  48d 139
2024 05 22 16  18 39 37.196   -56 03 11.37  .40663 1.3259 133.6 19.4  48d 139
2024 05 22 17  18 39 38.560   -56 03 12.89  .40603 1.3255 133.6 19.4  48d 139
2024 05 22 18  18 39 39.918   -56 03 14.36  .40544 1.3251 133.6 19.4  49d 139
2024 05 22 19  18 39 41.269   -56 03 15.78  .40485 1.3247 133.7 19.4  49d 139
2024 05 22 20  18 39 42.615   -56 03 17.14  .40426 1.3243 133.7 19.4  49d 139
2024 05 22 21  18 39 43.954   -56 03 18.46  .40367 1.3239 133.7 19.4  49d 139
2024 05 22 22  18 39 45.288   -56 03 19.72  .40307 1.3235 133.7 19.4  49d 139
2024 05 22 23  18 39 46.615   -56 03 20.92  .40248 1.3231 133.8 19.4  50d 139
2024 05 23 00  18 39 47.936   -56 03 22.08  .40189 1.3227 133.8 19.4  50d 139
2024 05 23 01  18 39 49.251   -56 03 23.18  .40130 1.3223 133.8 19.4  50d 139
2024 05 23 02  18 39 50.559   -56 03 24.22  .40071 1.3219 133.8 19.4  50d 139
2024 05 23 03  18 39 51.862   -56 03 25.22  .40012 1.3215 133.8 19.4  50d 139
2024 05 23 04  18 39 53.158   -56 03 26.15  .39952 1.3211 133.9 19.4  51d 139
2024 05 23 05  18 39 54.448   -56 03 27.04  .39893 1.3207 133.9 19.4  51d 139
2024 05 23 06  18 39 55.732   -56 03 27.86  .39834 1.3203 133.9 19.4  51d 140
2024 05 23 07  18 39 57.009   -56 03 28.64  .39775 1.3199 133.9 19.3  51d 140
2024 05 23 08  18 39 58.280   -56 03 29.35  .39716 1.3196 134.0 19.3  51d 140
2024 05 23 09  18 39 59.545   -56 03 30.02  .39657 1.3192 134.0 19.3  51d 140
2024 05 23 10  18 40 00.804   -56 03 30.62  .39598 1.3188 134.0 19.3  51d 140
2024 05 23 11  18 40 02.056   -56 03 31.17  .39539 1.3184 134.0 19.3  51d 140
2024 05 23 12  18 40 03.302   -56 03 31.67  .39480 1.3180 134.1 19.3  51d 139
2024 05 23 13  18 40 04.542   -56 03 32.11  .39421 1.3176 134.1 19.3  51d 139
2024 05 23 14  18 40 05.775   -56 03 32.49  .39362 1.3172 134.1 19.3  51d 139
2024 05 23 15  18 40 07.002   -56 03 32.82  .39303 1.3168 134.1 19.3  51d 139
2024 05 23 16  18 40 08.222   -56 03 33.08  .39244 1.3164 134.2 19.3  52d 139
2024 05 23 17  18 40 09.436   -56 03 33.29  .39185 1.3160 134.2 19.3  52d 139